Home   Weather   Saint John's   Past weeks
Flag for Antigua and Barbuda

Past Weather in Saint John's, Antigua and Barbuda — Yesterday and Last 2 Weeks

Now
86 °F

Scattered clouds.


Feels Like: 95 °F
Forecast: 89 / 81 °F
Wind: 8 mph from East

Location: Vc Bird International Antigua Airport

Current Time: Oct 17, 2019 at 3:23:43 pm

Latest Report: Oct 17, 2019 at 2:00 pm


Visibility: N/A

Pressure: 29.89 "Hg

Humidity: 70%

Dew Point: 75 °F

Location of Saint John'sLocation

Past Weather in Saint John's — Graph

°F

Saint John's Temperature Yesterday

Maximum temperature yesterday: 90 °F (at 11:00 am)
Minimum temperature yesterday: 75 °F (at 6:00 am)
Average temperature yesterday: 83 °F

High & Low Weather Summary for the Past Weeks

 TemperatureHumidityPressure
High90 °F (Oct 11, 11:00 am)94% (Oct 5, 4:00 am)30.01 "Hg (Oct 5, 4:00 am)
Low73 °F (Oct 14, 4:00 am)52% (Oct 11, 1:00 pm)29.83 "Hg (Oct 10, 2:00 pm)
Average83 °F74%29.93 "Hg
* Reported Oct 2 2:00 pm — Oct 17 2:00 pm, Saint John's. Weather by CustomWeather, © 2019

Note: Actual official high and low records may vary slightly from our data, if they occured in-between our weather recording intervals... More about our weather records

Advertising

Saint John's Weather History for the Previous 24 Hours

Scroll right to see more
 ConditionsComfort  
Time TempWeatherWind HumidityBarometerVisibility
2:00 pm
Thu, Oct 17
86 °FScattered clouds.8 mph70%29.89 "HgN/A
1:00 pm88 °FPassing clouds.8 mph70%29.92 "HgN/A
11:00 am86 °FPassing clouds.10 mph66%29.95 "HgN/A
10:00 am88 °FPassing clouds.13 mph66%29.98 "HgN/A
9:00 am86 °FPassing clouds.13 mph75%29.95 "HgN/A
8:00 am86 °FScattered showers. Scattered clouds.12 mph70%29.95 "HgN/A
7:00 am84 °FScattered clouds.9 mph70%29.92 "HgN/A
6:00 am82 °FScattered clouds.9 mph74%29.92 "HgN/A
5:00 am81 °FPassing clouds.8 mph79%29.89 "HgN/A
4:00 am82 °FPassing clouds.7 mph74%29.92 "HgN/A
3:00 am82 °FPassing clouds.8 mph74%29.92 "HgN/A
2:00 am82 °FPassing clouds.8 mph79%29.92 "HgN/A
1:00 am82 °FPassing clouds.7 mph74%29.95 "HgN/A
12:00 am82 °FPassing clouds.9 mph74%29.95 "HgN/A
11:00 pm
Wed, Oct 16
82 °FPassing clouds.7 mph74%29.95 "HgN/A
10:00 pm82 °FPassing clouds.7 mph74%29.98 "HgN/A
9:00 pm82 °FPassing clouds.7 mph70%29.95 "HgN/A
8:00 pm82 °FPassing clouds.7 mph74%29.95 "HgN/A
7:00 pm82 °FPassing clouds.7 mph70%29.92 "HgN/A
6:00 pm82 °FPassing clouds.7 mph74%29.92 "HgN/A
5:00 pm84 °FPassing clouds.7 mph70%29.92 "HgN/A
4:00 pm84 °FScattered clouds.8 mph70%29.92 "HgN/A
3:00 pm88 °FPassing clouds.8 mph66%29.92 "HgN/A
Weather by CustomWeather, © 2019

See weather overview